User: anonymous
Location: Indian Springs
(36.5700°N, 115.6700°W)
Time: 01:45:16
(UTC-07:00)
Language:

Cosmos 2278 Rocket - Orbit

View from above orbital plane
View from above orbital plane
View from above satellite
View from above satellite

Ground track
Ground track

The orbit data is extracted from the following two-line orbital elements,

1 23088U 94023B   14105.83700078 -.00000228  00000-0 -94121-4 0  9033
2 23088 070.9999 193.1457 0002021 013.9753 124.2570 14.14564698 31732
Epoch (UTC): 15 April 2014 20:05:16
Eccentricity: 0.0002021
inclination: 70.9999°
perigee height: 842 km
apogee height: 845 km
right ascension of ascending node: 193.1457°
argument of perigee: 13.9753°
revolutions per day: 14.14564698
mean anomaly at epoch: 124.2570°
orbit number at epoch: 3173

The dashed part of the orbit path shows where the satellite is in the earth's shadow,  

DLR